[[{"header":{"parameterUnit":"m.s-1","parameterCategory":1,"la1":30.2991,"la2":30.254,"lo1":-89.0895,"lo2":-89.0444,"dy":0.0017,"dx":0.0017,"nx":28,"ny":28,"refTime":"2024-10-03T03:00:00:Z","depth":0,"parameterNumber":2,"parameterNumberName":"U-component_of_WINDS"},"data":[0,0,0,0,0,0,0,0,0,0,0,0,0,0,0,0,0,0,0,0,0,0,0,0,0,0,0,0,0,0,0,0,0,0,0,0,0,0,0,0,0,0,0,0,0,0,0,0,0,0,0,0,0,0,0,0,0,0,-4.9892,-4.9893,0,-4.9964,-4.9965,-4.9966,-4.9858,-4.9854,-4.985,-4.9847,-4.992,-4.9926,-4.9931,0,0,0,0,0,0,0,0,0,0,0,0,0,-4.9661,-4.9666,-4.9892,-4.9893,-4.9894,-4.9964,-4.9965,-4.9966,-4.9858,-4.9854,-4.9849,-4.9845,-4.9919,-4.9925,-4.9932,0,0,0,0,0,0,0,0,0,0,0,0,0,-4.9751,-4.9668,-4.9892,-4.9849,-4.9845,-4.9964,-4.9965,-4.9966,-4.9859,-4.9854,-4.9848,-4.9843,-4.9916,-4.9924,-4.9933,-5.0097,0,0,-4.9958,-4.9961,0,0,0,0,0,0,0,0,-4.9746,-4.9759,-4.9854,-4.9852,-4.9848,-4.9896,-4.9911,-5.001,-4.9861,-4.9854,-4.9846,-4.984,-4.9917,-4.9925,-4.9951,-5.01,-5.0104,-4.9958,-4.9963,-4.9967,-4.9969,0,0,0,0,0,0,0,-4.974,-4.9755,-4.9921,-4.9856,-4.9852,-4.9826,-4.9832,-4.9929,-4.9916,-4.9854,-4.9847,-4.9857,-4.9914,-4.9943,-4.9952,-5.0105,-4.9958,-4.9966,-4.9971,-4.9974,-5.0395,-5.0401,0,0,0,0,0,0,-4.9739,-4.9751,-4.9918,-4.9923,-4.9782,-4.9835,-4.9842,-4.9887,-4.9915,-4.9914,-4.9861,-4.9851,-4.9932,-4.9942,-4.9954,-5.015,-4.9967,-4.9975,-4.9979,-5.0389,-5.0397,-5.0404,0,0,0,0,0,0,-4.9734,-4.9755,-4.9915,-4.9835,-4.9853,-4.9845,-4.9896,-4.9891,-4.992,-4.992,-4.9918,-4.9893,-4.9928,-4.9942,-5.0063,-5.0151,-4.9978,-4.9986,-5.0382,-5.0392,-5.04,-5.0544,0,0,0,0,0,0,-4.9728,-4.9754,-4.9816,-4.9837,-4.9858,-5.0023,-4.9901,-4.9897,-4.9934,-4.9922,-4.995,-4.9949,-4.9924,-5.0051,-5.0071,-5.016,-4.9992,-5.0374,-5.0386,-5.0397,-5.0531,-5.0557,-5.0579,0,0,0,0,0,-4.972,-4.9853,-4.9819,-4.984,-4.9936,-5.0029,-5.0041,-5.001,-4.9942,-5.0005,-5.0005,-4.9948,-5.0138,-5.0064,-5.0086,-5.0178,-5.0368,-5.0383,-5.0396,-5.0521,-5.0552,-5.0579,0,0,0,0,0,0,-4.9841,-4.9855,-4.9818,-4.9961,-4.9995,-5.001,-5.0088,-5.0044,-5.0097,-5.0083,-5.0043,-5.005,-5.018,-5.019,-5.0108,-5.034,-5.0242,-5.0261,-5.0329,-5.0359,-5.0382,-5.0378,-4.9999,0,0,0,0,0,-4.9885,-4.9959,-4.9966,-5.0092,-5.0111,-5.0097,-5.0137,-5.011,-5.0143,-5.0157,-5.0166,-5.0201,-5.0268,-5.0314,-5.0375,-5.0532,-5.0537,-5.0606,-5.063,-5.0649,-5.0667,-5.0753,-5.0785,-5.045,-5.045,-5.045,0,0,-4.9975,-4.9992,-5.0041,-5.0117,-5.014,-5.0219,-5.011,-5.0197,-5.0256,-5.017,-5.0285,-5.0294,-5.0329,-5.0469,-5.0531,-5.0482,-5.0761,-5.0667,-5.0683,-5.069,-5.0771,-5.0803,-5.0831,-5.0459,-5.0458,-5.0456,0,0,-5.0181,-5.02,-5.0308,-5.0334,-5.037,-5.036,-5.0386,-5.0409,-5.0412,-5.0527,-5.0465,-5.0534,-5.065,-5.0679,-5.0709,-5.0928,-5.0878,-5.0949,-5.1075,-5.1159,-5.1186,-5.1209,-5.129,-5.1319,-5.0966,-5.0967,-5.0967,0,-5.0289,-5.0405,-5.0369,-5.0462,-5.0498,-5.0425,-5.0535,-5.0561,-5.0616,-5.0643,-5.0587,-5.0734,-5.0753,-5.09,-5.0953,-5.0979,-5.1009,-5.0947,-5.1185,-5.1208,-5.1229,-5.1306,-5.1336,-5.0975,-5.0974,-5.0973,-5.0972,0,-5.0537,-5.0619,-5.0702,-5.0758,-5.0804,-5.0904,-5.0885,-5.0935,-5.0905,-5.0902,-5.1021,-5.1041,-5.1107,-5.1139,-5.111,-5.1283,-5.1252,-5.1191,-5.1092,-5.127,-5.1342,-5.1371,-5.0988,-5.0984,-5.0982,-5.098,0,0,-5.0822,-5.0858,-5.0889,-5.0915,-5.0951,-5.1013,-5.1111,-5.1176,-5.1222,-5.1262,-5.1345,-5.1446,-5.1391,-5.1425,-5.1398,-5.1472,-5.1648,-5.1403,-5.1403,-5.145,-5.1843,-5.1891,-5.1925,-5.1614,-5.162,-5.1624,-5.1841,0,-5.1029,-5.1199,-5.1171,-5.1336,-5.1413,-5.1345,-5.143,-5.1462,-5.1462,-5.1526,-5.1525,-5.1599,-5.1519,-5.154,-5.161,-5.1612,-5.1727,-5.1595,-5.1693,-5.1697,-5.1689,-5.1962,-5.2012,-5.2216,-5.1869,-5.1873,-5.1877,0,-5.1293,-5.1346,-5.1519,-5.1545,-5.1576,-5.1654,-5.1712,-5.1775,-5.181,-5.1804,-5.1844,-5.1804,-5.1903,-5.1801,-5.1939,-5.185,-5.1888,-5.1895,-5.1903,-5.1912,-5.1799,-5.1982,-5.228,-5.2312,-5.192,-5.1916,-5.1913,0,-5.1487,-5.16,-5.1719,-5.1743,-5.1775,-5.1832,-5.1848,-5.1877,-5.1919,-5.197,-5.1997,-5.2059,-5.2094,-5.2143,-5.2122,-5.2049,-5.2265,-5.216,-5.2265,-5.2266,-5.2315,-5.2313,-5.2626,-5.2335,-5.2335,-5.2334,-5.2334,0,-5.1723,-5.1833,-5.1807,-5.1881,-5.2002,-5.1968,-5.2089,-5.2097,-5.2124,-5.2199,-5.2143,-5.2214,-5.218,-5.225,-5.2234,-5.2352,-5.2367,-5.2366,-5.2361,-5.2373,-5.2374,-5.2399,-5.2386,-5.2342,-5.234,-5.2339,-5.2337,0,-5.1961,-5.1948,-5.2074,-5.2095,-5.2102,-5.2191,-5.2209,-5.2279,-5.2274,-5.2369,-5.239,-5.2383,-5.2462,-5.2445,-5.2531,-5.252,-5.267,-5.2645,-5.2659,-5.2654,-5.2761,-5.2752,-5.3104,-5.315,-5.2827,-5.283,-5.2832,0,-5.2114,-5.2197,-5.2227,-5.2274,-5.2294,-5.2369,-5.2412,-5.2382,-5.2429,-5.2477,-5.2541,-5.2615,-5.2673,-5.2803,-5.2806,-5.2872,-5.2851,-5.2969,-5.286,-5.2871,-5.2856,-5.2853,-5.2863,-5.2992,-5.2996,-5.2999,-5.3001,0,-5.2387,-5.2377,-5.2441,-5.2505,-5.2558,-5.2606,-5.2649,-5.269,-5.2663,-5.2719,-5.28,-5.2845,-5.2934,-5.3009,-5.3071,-5.3088,-5.3042,-5.3035,-5.3064,-5.3078,-5.3084,-5.3085,-5.2721,-5.3028,-5.3025,-5.3023,-5.3022,-5.3021,-5.2589,-5.2661,-5.2695,-5.2769,-5.2798,-5.284,-5.2907,-5.2911,-5.2978,-5.3049,-5.3026,-5.3119,-5.3154,-5.3232,-5.3256,-5.3329,-5.3285,-5.3325,-5.3336,-5.3347,-5.3362,-5.307,-5.334,-5.3339,-5.3338,-5.3337,-5.3337,0,-5.2863,-5.2881,-5.295,-5.3012,-5.3071,-5.3022,-5.3067,-5.312,-5.3202,-5.3238,-5.3297,-5.3391,-5.3464,-5.3473,-5.3542,-5.3599,-5.358,-5.3619,-5.3616,-5.3621,-5.3396,-5.3366,-5.3633,-5.3633,-5.3633,-5.3633,-5.3633,-5.3633,-5.3012,-5.3132,-5.3126,-5.3261,-5.3278,-5.3369,-5.34,-5.3438,-5.3467,-5.3575,-5.3636,-5.3641,-5.3668,-5.3739,-5.3804,-5.3805,-5.3835,-5.3883,-5.3876,-5.3666,-5.3636,-5.3608,-5.358,-5.3889,-5.3889,-5.4096,-5.4097,-5.4099]},{"header":{"parameterUnit":"m.s-1","parameterCategory":1,"la1":30.2991,"la2":30.254,"lo1":-89.0895,"lo2":-89.0444,"dy":0.0017,"dx":0.0017,"nx":28,"ny":28,"refTime":"2024-10-03T03:00:00:Z","depth":0,"parameterNumber":3,"parameterNumberName":"V-component_of_WINDS"},"data":[0,0,0,0,0,0,0,0,0,0,0,0,0,0,0,0,0,0,0,0,0,0,0,0,0,0,0,0,0,0,0,0,0,0,0,0,0,0,0,0,0,0,0,0,0,0,0,0,0,0,0,0,0,0,0,0,0,0,-0.9992,-0.9991,0,-0.9909,-0.9908,-0.9907,-0.9865,-0.9865,-0.9865,-0.9865,-0.9775,-0.9773,-0.9771,0,0,0,0,0,0,0,0,0,0,0,0,0,-1.0108,-1.0106,-0.9992,-0.9991,-0.999,-0.9909,-0.9908,-0.9907,-0.9865,-0.9865,-0.9865,-0.9865,-0.9776,-0.9773,-0.977,0,0,0,0,0,0,0,0,0,0,0,0,0,-1.0044,-1.0106,-0.9992,-0.9959,-0.9955,-0.9909,-0.9908,-0.9906,-0.9865,-0.9865,-0.9865,-0.9864,-0.9777,-0.9774,-0.977,-0.9749,0,0,-0.9759,-0.9758,0,0,0,0,0,0,0,0,-1.0048,-1.004,-0.9965,-0.9961,-0.9957,-0.9897,-0.9916,-0.9853,-0.9865,-0.9899,-0.9865,-0.9864,-0.9816,-0.9809,-0.9793,-0.9745,-0.9741,-0.9759,-0.9757,-0.9755,-0.9754,0,0,0,0,0,0,0,-1.0053,-1.0044,-0.9959,-0.9964,-0.9959,-0.9947,-0.9937,-0.9904,-0.9858,-0.9896,-0.9893,-0.9884,-0.9813,-0.9797,-0.9791,-0.974,-0.9759,-0.9756,-0.9754,-0.9752,-0.9666,-0.9666,0,0,0,0,0,0,-1.0063,-1.0048,-0.9962,-0.9956,-1.0004,-0.9945,-0.9934,-0.9916,-0.9859,-0.985,-0.9884,-0.9882,-0.9803,-0.9795,-0.9787,-0.9757,-0.9755,-0.9752,-0.975,-0.9666,-0.9666,-0.9666,0,0,0,0,0,0,-1.0066,-1.0056,-0.9965,-1.0001,-0.9989,-0.9943,-0.9923,-0.9915,-0.9898,-0.9849,-0.9841,-0.9876,-0.9802,-0.9792,-0.9758,-0.9754,-0.975,-0.9747,-0.9666,-0.9666,-0.9666,-0.9698,0,0,0,0,0,0,-1.0069,-1.0057,-1.005,-1.0001,-0.9987,-0.9939,-0.9922,-0.9913,-0.9893,-0.989,-0.9839,-0.9831,-0.9802,-0.9764,-0.9755,-0.9749,-0.9744,-0.9667,-0.9666,-0.9666,-0.9698,-0.9699,-0.9701,0,0,0,0,0,-1.0074,-1.0062,-1.005,-1.004,-0.9978,-0.9939,-0.9931,-0.9898,-0.9893,-0.9884,-0.9852,-0.9833,-0.9756,-0.9761,-0.975,-0.9743,-0.9667,-0.9666,-0.9666,-0.9697,-0.9699,-0.9701,0,0,0,0,0,0,-1.0111,-1.0056,-1.0041,-1.0014,-0.9982,-0.9932,-0.9921,-0.9902,-0.987,-0.9868,-0.9827,-0.9816,-0.9786,-0.9761,-0.9767,-0.9718,-0.9709,-0.9707,-0.9736,-0.9738,-0.9739,-0.9746,-0.9741,0,0,0,0,0,-1.0117,-1.0092,-1.0044,-1.0024,-1.0009,-0.9968,-0.995,-0.9927,-0.9892,-0.9877,-0.9843,-0.9808,-0.9775,-0.9755,-0.9722,-0.9693,-0.968,-0.9683,-0.9684,-0.9686,-0.9684,-0.9665,-0.9665,-0.9665,-0.9665,-0.9665,0,0,-1.0127,-1.0094,-1.008,-1.0031,-1.0003,-0.9977,-0.9957,-0.993,-0.9909,-0.9873,-0.9839,-0.9812,-0.9769,-0.9737,-0.9721,-0.9716,-0.9681,-0.9685,-0.9687,-0.9684,-0.9664,-0.9664,-0.9664,-0.9664,-0.9664,-0.9664,0,0,-1.0133,-1.0106,-1.0086,-1.0058,-1.0017,-0.9989,-0.9984,-0.9936,-0.9918,-0.9883,-0.9855,-0.9828,-0.9773,-0.9744,-0.9721,-0.9712,-0.9692,-0.9703,-0.9712,-0.9693,-0.9693,-0.9693,-0.9688,-0.9687,-0.9701,-0.9701,-0.9701,0,-1.0152,-1.0112,-1.0078,-1.0052,-1.003,-0.9997,-0.9975,-0.9949,-0.9898,-0.9883,-0.9877,-0.9806,-0.9775,-0.9735,-0.9733,-0.9716,-0.9707,-0.9709,-0.9696,-0.9695,-0.9695,-0.969,-0.9689,-0.9703,-0.9703,-0.9702,-0.9702,0,-1.0136,-1.0108,-1.0097,-1.005,-1.0026,-1.0002,-0.9963,-0.9942,-0.9921,-0.9893,-0.9856,-0.9817,-0.9776,-0.9764,-0.9743,-0.9719,-0.9717,-0.9704,-0.9694,-0.9697,-0.9692,-0.969,-0.9705,-0.9704,-0.9704,-0.9703,0,0,-1.0166,-1.0098,-1.0094,-1.0072,-1.0022,-0.9999,-0.9972,-0.9932,-0.9915,-0.9879,-0.9855,-0.9808,-0.9795,-0.977,-0.9744,-0.9728,-0.9721,-0.9716,-0.9715,-0.9718,-0.9691,-0.9702,-0.97,-0.9707,-0.9707,-0.9706,-0.9695,0,-1.0164,-1.0117,-1.0084,-1.0049,-1.0022,-0.9988,-0.9964,-0.9929,-0.9902,-0.9873,-0.9841,-0.9808,-0.9794,-0.9778,-0.976,-0.9726,-0.9715,-0.9726,-0.9682,-0.9681,-0.9695,-0.9698,-0.9709,-0.97,-0.9692,-0.9692,-0.9692,0,-1.0157,-1.0124,-1.0087,-1.0037,-1.0025,-1.0004,-0.9964,-0.9937,-0.9896,-0.9876,-0.9847,-0.982,-0.9788,-0.978,-0.9733,-0.9742,-0.9721,-0.9701,-0.9699,-0.9695,-0.9687,-0.9693,-0.9697,-0.9696,-0.9689,-0.9689,-0.9689,0,-1.0182,-1.0128,-1.0098,-1.0079,-1.0021,-1.0007,-0.9982,-0.9941,-0.9918,-0.9881,-0.9866,-0.9825,-0.9803,-0.9771,-0.9734,-0.9732,-0.969,-0.968,-0.9672,-0.9673,-0.9666,-0.9667,-0.9666,-0.9652,-0.9652,-0.9652,-0.9652,0,-1.0185,-1.0163,-1.0108,-1.009,-1.0063,-1.0024,-0.9997,-0.9969,-0.9932,-0.9906,-0.9873,-0.9848,-0.98,-0.9768,-0.9738,-0.9703,-0.9693,-0.9675,-0.9668,-0.9679,-0.9681,-0.9665,-0.9665,-0.9652,-0.9652,-0.9652,-0.9652,0,-1.0209,-1.0172,-1.0136,-1.0084,-1.007,-1.0052,-1.0006,-0.9986,-0.9955,-0.9922,-0.9911,-0.9863,-0.9824,-0.9783,-0.973,-0.9709,-0.9675,-0.9665,-0.969,-0.9686,-0.968,-0.9681,-0.967,-0.9666,-0.9655,-0.9655,-0.9655,0,-1.0214,-1.0196,-1.0141,-1.0122,-1.0097,-1.0067,-1.0043,-1.0002,-0.9978,-0.9928,-0.9913,-0.9872,-0.9837,-0.9776,-0.9734,-0.9693,-0.9681,-0.9679,-0.9674,-0.9685,-0.968,-0.9682,-0.9679,-0.9682,-0.9682,-0.9682,-0.9682,0,-1.0225,-1.0207,-1.0175,-1.0136,-1.0109,-1.0075,-1.0041,-1.0026,-0.9978,-0.9952,-0.9913,-0.9885,-0.9831,-0.9789,-0.9742,-0.9714,-0.9689,-0.9684,-0.968,-0.9691,-0.9707,-0.9698,-0.9695,-0.9685,-0.9685,-0.9684,-0.9684,-0.9684,-1.0239,-1.0221,-1.0179,-1.0144,-1.0114,-1.0081,-1.0059,-1.0025,-0.9992,-0.9945,-0.9922,-0.9882,-0.9837,-0.9772,-0.9744,-0.971,-0.9703,-0.9697,-0.9696,-0.9695,-0.9698,-0.9712,-0.9701,-0.9701,-0.9701,-0.9701,-0.9701,0,-1.0249,-1.0219,-1.0187,-1.014,-1.0112,-1.0091,-1.0051,-1.0028,-0.9994,-0.9955,-0.9921,-0.9874,-0.9833,-0.9788,-0.9743,-0.9725,-0.9712,-0.9714,-0.9716,-0.9709,-0.9707,-0.9715,-0.9725,-0.9725,-0.9725,-0.9725,-0.9725,-0.9725,-1.025,-1.0218,-1.0195,-1.0146,-1.0116,-1.0078,-1.0056,-1.0025,-0.9994,-0.9944,-0.991,-0.9881,-0.9838,-0.979,-0.975,-0.9738,-0.9723,-0.9728,-0.9712,-0.9711,-0.9709,-0.9708,-0.9715,-0.9725,-0.9725,-0.9717,-0.9717,-0.9717]}]]